[[[{"header":{"parameterUnit":"kt","parameterCategory":2,"dx":1,"dy":1,"la1":30.253999710083008,"la2":30.299108505249023,"lo1":-89.0895004272461,"lo2":-89.04439544677734,"nx":28,"ny":28,"refTime":"2022-10-05T21:00:00:Z","depth":"0","parameterNumber":2,"parameterNumberName":"U-component_of_CURRENTS"},"data":[0.0859,0.0948,0.1001,0.1138,0.1193,0.1286,0.1328,0.1379,0.1414,0.1489,0.1554,0.1559,0.1712,0.1992,0.2033,0.1969,0.1896,0.2028,0.1914,0.1614,0.156,0.1508,0.1574,0.2028,0.2029,0.2262,0.2266,0.2268,0.0824,0.0897,0.0969,0.1051,0.1105,0.1101,0.1156,0.1202,0.1272,0.1284,0.1315,0.1434,0.1476,0.1411,0.1438,0.1463,0.137,0.1475,0.1508,0.1459,0.1081,0.1143,0.1512,0.1512,0.1512,0.1512,0.1512,0.1512,0.0791,0.0833,0.0896,0.0955,0.0987,0.1033,0.1077,0.109,0.1125,0.1151,0.112,0.1154,0.1171,0.1049,0.0946,0.0954,0.0863,0.0901,0.0953,0.097,0.1042,0.0715,0.0901,0.0899,0.0898,0.0896,0.0895,0,0.0758,0.0781,0.0814,0.0878,0.0905,0.0926,0.0942,0.0959,0.0922,0.0932,0.0954,0.0941,0.087,0.083,0.0715,0.0598,0.0491,0.0408,0.0447,0.0658,0.0803,0.0769,0.0245,0.0425,0.042,0.0417,0.0414,0.0412,0.0729,0.0749,0.0783,0.081,0.082,0.0828,0.0836,0.0793,0.079,0.076,0.0766,0.0714,0.0674,0.0531,0.0382,0.0249,0.0197,0.0295,0.0184,0.0318,0.0344,0.0379,0.0377,0.0359,0.0366,0.0372,0.0376,0,0.0719,0.0729,0.075,0.0753,0.0753,0.0759,0.0748,0.0737,0.0689,0.0668,0.0652,0.0531,0.0452,0.0278,0.0069,-0.0025,-0.0027,-0.0147,0.0064,0.0054,0.0196,0.0249,0.0511,0.0535,-0.0038,-0.0033,-0.0029,0,0.0705,0.071,0.0731,0.0734,0.0739,0.0698,0.0679,0.0621,0.0563,0.0541,0.0408,0.0379,0.0139,0.0058,-0.011,-0.0172,-0.0252,-0.0304,-0.0341,-0.0231,-0.0208,-0.0212,-0.0165,-0.0528,-0.0528,-0.0529,-0.0529,0,0.0713,0.07,0.0712,0.0698,0.0656,0.0642,0.0599,0.0495,0.0451,0.0351,0.0328,0.0184,0.0114,-0.0026,-0.0199,-0.0268,-0.0328,-0.0471,-0.0392,-0.0381,-0.0325,-0.0308,-0.007,-0.053,-0.053,-0.053,-0.053,0,0.0702,0.0711,0.0703,0.0691,0.0677,0.0628,0.054,0.0459,0.0337,0.0264,0.0169,0.004,-0.0056,-0.0153,-0.031,-0.0316,-0.0413,-0.0511,-0.0514,-0.0445,-0.0541,-0.0336,-0.0142,-0.0073,-0.0557,-0.0558,-0.0558,0,0.0732,0.0727,0.0702,0.0656,0.0639,0.0549,0.0479,0.0365,0.0252,0.0154,0.0017,-0.0122,-0.0232,-0.03,-0.0352,-0.0529,-0.0526,-0.0542,-0.0708,-0.071,-0.0562,-0.0402,-0.0253,-0.0165,-0.0565,-0.0564,-0.0564,0,0.0744,0.0734,0.0727,0.0723,0.0613,0.0542,0.0457,0.0325,0.028,0.0102,0.0032,-0.0212,-0.0274,-0.0401,-0.0545,-0.0586,-0.0537,-0.0684,-0.0692,-0.0632,-0.0593,-0.0432,-0.0412,-0.0639,-0.0638,-0.0638,-0.0569,0,0.0784,0.076,0.0747,0.0674,0.0601,0.0535,0.0403,0.0314,0.0208,0.008,-0.0077,-0.0307,-0.0506,-0.0559,-0.07,-0.0736,-0.0759,-0.0863,-0.0938,-0.0852,-0.0832,-0.0826,-0.0949,-0.0953,-0.0956,-0.0959,0,0,0.0806,0.0763,0.0694,0.0663,0.0603,0.0468,0.0416,0.0289,0.0033,-0.0031,-0.0096,-0.0453,-0.0641,-0.0802,-0.0796,-0.0905,-0.0929,-0.0928,-0.0896,-0.0888,-0.0882,-0.0857,-0.0848,-0.0965,-0.0966,-0.0967,-0.0968,0,0.0801,0.0757,0.0735,0.0658,0.0542,0.0422,0.0418,0.0215,0.0114,-0.007,-0.0243,-0.0379,-0.0693,-0.0836,-0.0951,-0.0945,-0.1051,-0.0987,-0.0865,-0.0923,-0.091,-0.09,-0.0872,-0.0862,-0.0976,-0.0976,-0.0976,0,0.0802,0.0738,0.0705,0.0573,0.0463,0.0378,0.0267,0.0157,0.0066,-0.0183,-0.037,-0.0534,-0.0773,-0.0932,-0.1013,-0.1053,-0.1144,-0.1171,-0.1156,-0.1152,-0.1217,-0.1202,-0.1189,-0.1359,-0.136,-0.136,0,0,0.0802,0.0766,0.0614,0.0554,0.0517,0.0326,0.0241,0.0129,-0.0065,-0.0156,-0.0366,-0.0568,-0.0749,-0.086,-0.1052,-0.1193,-0.1245,-0.1209,-0.1191,-0.1175,-0.1161,-0.1222,-0.1208,-0.1362,-0.1362,-0.1362,0,0,0.0765,0.0636,0.0594,0.0526,0.0395,0.0159,0.0101,0.0002,-0.0205,-0.0221,-0.0475,-0.0545,-0.0712,-0.0856,-0.0849,-0.1056,-0.1138,-0.1148,-0.0957,-0.0938,-0.0921,-0.0857,-0.1013,0,0,0,0,0,0.0691,0.0671,0.0637,0.0607,0.0363,0.0201,0.0155,-0.0025,-0.0065,-0.0117,-0.0324,-0.0444,-0.0896,-0.0897,-0.096,-0.0951,-0.138,-0.1377,-0.1374,-0.1165,-0.1142,-0.1123,0,0,0,0,0,0,0.0678,0.0645,0.0636,0.0422,0.0364,0.02,0.0088,0.0035,-0.0065,-0.0086,-0.0401,-0.0454,-0.0642,-0.0878,-0.0932,-0.0918,-0.0995,-0.1379,-0.1376,-0.1374,-0.1157,-0.1139,-0.1122,0,0,0,0,0,0.0667,0.064,0.0319,0.0415,0.0365,0.0131,0.0087,0.0042,-0.0058,-0.0339,-0.0396,-0.0179,-0.0637,-0.0698,-0.0912,-0.0888,-0.0959,-0.0978,-0.1377,-0.1375,-0.1373,-0.1148,0,0,0,0,0,0,0.0659,0.0549,0.0301,0.0276,0.0425,0.0132,0.0088,0.005,-0.0312,-0.0363,-0.0129,-0.0142,-0.0634,-0.0682,-0.0728,-0.0864,-0.0929,-0.0949,-0.0962,-0.1376,-0.1374,-0.1372,0,0,0,0,0,0,0.0563,0.053,0.0287,0.0311,0.0285,0.0135,0.0096,-0.0102,-0.0316,-0.0088,-0.0106,-0.0131,-0.0568,-0.0671,-0.0707,-0.1013,-0.0907,-0.0926,-0.0939,-0.0947,-0.1374,-0.1373,0,0,0,0,0,0,0.0544,0.0515,0.0315,0.0296,0.0273,-0.004,-0.0051,-0.0302,-0.0253,-0.0072,-0.0255,-0.0256,-0.0553,-0.0595,-0.0692,-0.0981,-0.1004,-0.0907,-0.092,-0.0929,-0.0936,0,0,0,0,0,0,0,0.0528,0.0792,0.0473,0.0283,0.0263,0.0045,0.0036,0.0027,-0.0253,-0.0254,-0.0255,-0.0255,-0.0799,-0.0819,-0.084,-0.0955,0,0,-0.0905,-0.0915,0,0,0,0,0,0,0,0,0.0797,0.0793,0.0472,0.0468,0.0464,0.0044,0.0036,0.0029,-0.0253,-0.0254,-0.0254,-0.0255,-0.0804,-0.0821,-0.0838,0,0,0,0,0,0,0,0,0,0,0,0,0,0,0,0.0472,0.0468,0,0.0043,0.0037,0.0031,-0.0253,-0.0254,-0.0254,-0.0255,-0.0809,-0.0823,-0.0837,0,0,0,0,0,0,0,0,0,0,0,0,0,0,0,0,0,0,0,0,0,0,0,0,0,0,0,0,0,0,0,0,0,0,0,0,0,0,0,0,0,0,0,0,0,0,0,0,0,0,0,0,0,0,0,0,0,0,0,0,0,0,0,0,0,0,0,0,0]}],[{"header":{"parameterUnit":"kt","parameterCategory":2,"dx":1,"dy":1,"la1":30.253999710083008,"la2":30.299108505249023,"lo1":-89.0895004272461,"lo2":-89.04439544677734,"nx":28,"ny":28,"refTime":"2022-10-05T21:00:00:Z","depth":"0","parameterNumber":3,"parameterNumberName":"V-component_of_CURRENTS"},"data":[-0.207,-0.2058,-0.2109,-0.2108,-0.215,-0.2164,-0.2185,-0.2177,-0.2168,-0.209,-0.2039,-0.2009,-0.2094,-0.2446,-0.268,-0.2801,-0.2946,-0.3033,-0.3072,-0.2888,-0.2895,-0.2901,-0.2943,-0.2831,-0.2831,-0.3346,-0.3349,-0.335,-0.2155,-0.2186,-0.2204,-0.2277,-0.2284,-0.2369,-0.2422,-0.242,-0.2417,-0.2398,-0.2395,-0.2434,-0.2569,-0.2749,-0.2922,-0.2964,-0.3196,-0.2987,-0.3154,-0.3224,-0.3099,-0.315,-0.3081,-0.3081,-0.3081,-0.3081,-0.3081,-0.3081,-0.2332,-0.2314,-0.2378,-0.243,-0.2474,-0.2516,-0.2521,-0.2581,-0.2596,-0.261,-0.2674,-0.265,-0.2822,-0.2945,-0.3012,-0.3121,-0.3197,-0.3095,-0.3041,-0.318,-0.33,-0.3228,-0.3127,-0.3127,-0.3127,-0.3127,-0.3126,0,-0.2494,-0.2531,-0.2565,-0.2625,-0.2661,-0.2707,-0.2768,-0.2765,-0.2881,-0.2892,-0.2902,-0.2915,-0.2988,-0.3028,-0.307,-0.3098,-0.3198,-0.3129,-0.308,-0.3128,-0.3296,-0.3356,-0.3274,-0.3175,-0.3175,-0.3175,-0.3175,-0.3175,-0.2685,-0.2681,-0.2799,-0.282,-0.287,-0.291,-0.2938,-0.3054,-0.3062,-0.3124,-0.31,-0.3118,-0.3127,-0.3101,-0.3177,-0.3167,-0.3186,-0.3129,-0.3197,-0.3174,-0.3112,-0.3252,-0.3325,-0.3174,-0.3175,-0.3175,-0.3175,0,-0.2783,-0.2879,-0.2903,-0.3029,-0.3068,-0.3062,-0.3157,-0.3155,-0.3226,-0.3213,-0.3218,-0.3298,-0.3287,-0.3328,-0.3263,-0.3279,-0.3249,-0.3196,-0.3247,-0.323,-0.3185,-0.3149,-0.3168,-0.3242,-0.3117,-0.3116,-0.3116,0,-0.2962,-0.2974,-0.3108,-0.3118,-0.3135,-0.3245,-0.3246,-0.3305,-0.3356,-0.3349,-0.3447,-0.3429,-0.3475,-0.3444,-0.3435,-0.3371,-0.3342,-0.3341,-0.3313,-0.335,-0.3355,-0.3224,-0.3178,-0.3305,-0.3306,-0.3307,-0.3308,0,-0.3038,-0.3149,-0.3165,-0.3202,-0.3316,-0.3335,-0.3386,-0.345,-0.347,-0.3514,-0.351,-0.3543,-0.3522,-0.3494,-0.3482,-0.3507,-0.3388,-0.3402,-0.3353,-0.3352,-0.3268,-0.3264,-0.3242,-0.331,-0.331,-0.3311,-0.3311,0,-0.3162,-0.3217,-0.3254,-0.3341,-0.3361,-0.3396,-0.344,-0.3492,-0.355,-0.3582,-0.361,-0.3622,-0.3633,-0.3653,-0.3588,-0.3627,-0.3567,-0.3533,-0.3526,-0.3436,-0.3422,-0.336,-0.338,-0.3341,-0.344,-0.3441,-0.3443,0,-0.3192,-0.3252,-0.3323,-0.3372,-0.3403,-0.3484,-0.3525,-0.3585,-0.3629,-0.3651,-0.3689,-0.3675,-0.372,-0.3701,-0.3709,-0.3643,-0.3616,-0.3686,-0.3436,-0.3428,-0.347,-0.3502,-0.3533,-0.3405,-0.3462,-0.346,-0.3459,0,-0.3202,-0.3319,-0.3324,-0.3352,-0.3452,-0.3486,-0.3548,-0.3604,-0.3612,-0.369,-0.3692,-0.3714,-0.3714,-0.3667,-0.3657,-0.3641,-0.3646,-0.3586,-0.3578,-0.356,-0.351,-0.3526,-0.3514,-0.3628,-0.3626,-0.3625,-0.3474,0,-0.3259,-0.3306,-0.3331,-0.3394,-0.3445,-0.3492,-0.3561,-0.3606,-0.3643,-0.3674,-0.3688,-0.3695,-0.3641,-0.3644,-0.3632,-0.3598,-0.3542,-0.3516,-0.3457,-0.3495,-0.3421,-0.341,-0.3485,-0.3481,-0.3477,-0.3475,0,0,-0.3236,-0.3283,-0.334,-0.3385,-0.342,-0.3483,-0.3518,-0.3565,-0.363,-0.3641,-0.3653,-0.3604,-0.3574,-0.3545,-0.3566,-0.3546,-0.348,-0.3479,-0.3473,-0.3474,-0.3473,-0.3407,-0.34,-0.3469,-0.3468,-0.3467,-0.3466,0,-0.324,-0.3292,-0.3318,-0.3372,-0.3445,-0.3474,-0.3499,-0.3564,-0.3588,-0.364,-0.36,-0.3606,-0.3547,-0.3509,-0.3471,-0.3515,-0.3385,-0.3456,-0.3502,-0.3449,-0.3455,-0.3458,-0.3395,-0.3391,-0.3458,-0.3458,-0.3459,0,-0.3233,-0.3274,-0.3292,-0.3373,-0.3411,-0.3455,-0.3467,-0.3525,-0.3555,-0.3519,-0.3549,-0.3526,-0.344,-0.3432,-0.3412,-0.3375,-0.3309,-0.3331,-0.3343,-0.3294,-0.3232,-0.3238,-0.3244,-0.3176,-0.3176,-0.3177,0,0,-0.3233,-0.3266,-0.3333,-0.3376,-0.3405,-0.3453,-0.3486,-0.3505,-0.3532,-0.3543,-0.3521,-0.3467,-0.343,-0.341,-0.3358,-0.3354,-0.3269,-0.3308,-0.3321,-0.3333,-0.3292,-0.3233,-0.3238,-0.3177,-0.3177,-0.3177,0,0,-0.3224,-0.3283,-0.3299,-0.3352,-0.3408,-0.3454,-0.3483,-0.3505,-0.353,-0.3522,-0.3469,-0.3457,-0.3449,-0.3374,-0.3398,-0.3305,-0.3233,-0.3229,-0.3399,-0.3414,-0.3427,-0.3396,-0.3281,0,0,0,0,0,-0.3245,-0.3278,-0.3293,-0.3309,-0.3387,-0.3454,-0.3465,-0.3483,-0.3478,-0.3507,-0.3502,-0.3418,-0.3359,-0.3381,-0.3368,-0.3355,-0.3186,-0.3185,-0.3183,-0.3398,-0.3414,-0.3428,0,0,0,0,0,0,-0.3251,-0.3268,-0.3293,-0.3339,-0.3358,-0.3452,-0.3422,-0.3428,-0.3474,-0.3473,-0.343,-0.3415,-0.3363,-0.338,-0.337,-0.3359,-0.3284,-0.3186,-0.3184,-0.3183,-0.3403,-0.3417,-0.3428,0,0,0,0,0,-0.3256,-0.327,-0.3389,-0.3339,-0.3355,-0.3394,-0.342,-0.3424,-0.346,-0.3405,-0.3396,-0.3475,-0.3366,-0.3353,-0.3373,-0.3365,-0.3291,-0.3287,-0.3185,-0.3184,-0.3183,-0.341,0,0,0,0,0,0,-0.326,-0.327,-0.3393,-0.3399,-0.3321,-0.3389,-0.3399,-0.3421,-0.3388,-0.3384,-0.3442,-0.344,-0.3367,-0.3357,-0.3347,-0.3372,-0.3296,-0.3292,-0.329,-0.3184,-0.3183,-0.3182,0,0,0,0,0,0,-0.3263,-0.3275,-0.3396,-0.3373,-0.3376,-0.3385,-0.3393,-0.3363,-0.3382,-0.3423,-0.3424,-0.3441,-0.3341,-0.336,-0.3353,-0.3309,-0.33,-0.3296,-0.3294,-0.3293,-0.3183,-0.3183,0,0,0,0,0,0,-0.3269,-0.3279,-0.3371,-0.3373,-0.3376,-0.3445,-0.3352,-0.3404,-0.3453,-0.342,-0.3449,-0.3447,-0.3342,-0.3336,-0.3356,-0.3316,-0.3311,-0.33,-0.3297,-0.3296,-0.3295,0,0,0,0,0,0,0,-0.3273,-0.3198,-0.3361,-0.3374,-0.3377,-0.3458,-0.3459,-0.346,-0.3453,-0.3451,-0.345,-0.3448,-0.3318,-0.3315,-0.3311,-0.3323,0,0,-0.33,-0.3298,0,0,0,0,0,0,0,0,-0.3195,-0.3197,-0.3361,-0.3362,-0.3364,-0.3458,-0.3459,-0.346,-0.3453,-0.3451,-0.345,-0.3449,-0.3317,-0.3315,-0.3312,0,0,0,0,0,0,0,0,0,0,0,0,0,0,0,-0.3361,-0.3362,0,-0.3458,-0.3459,-0.346,-0.3452,-0.3451,-0.345,-0.3449,-0.3317,-0.3314,-0.3312,0,0,0,0,0,0,0,0,0,0,0,0,0,0,0,0,0,0,0,0,0,0,0,0,0,0,0,0,0,0,0,0,0,0,0,0,0,0,0,0,0,0,0,0,0,0,0,0,0,0,0,0,0,0,0,0,0,0,0,0,0,0,0,0,0,0,0,0,0]}]],[[{"header":{"parameterUnit":"kt","parameterCategory":2,"dx":1,"dy":1,"la1":30.253999710083008,"la2":30.299108505249023,"lo1":-89.0895004272461,"lo2":-89.04439544677734,"nx":28,"ny":28,"refTime":"2022-10-05T21:00:00:Z","depth":"2","parameterNumber":2,"parameterNumberName":"U-component_of_CURRENTS"},"data":[-0.1717,-0.1575,-0.1547,-0.1396,-0.1338,-0.1212,-0.1168,-0.1183,-0.1088,-0.0925,-0.071,-0.0688,-0.0406,-0.0248,-0.0139,0.0053,-0.0026,0.0053,0.0173,-0.0117,-0.0135,-0.0097,-0.0224,0,0,0,0,0,-0.1843,-0.1772,-0.1671,-0.1539,-0.1473,-0.1437,-0.134,-0.1301,-0.1234,-0.1075,-0.0984,-0.0727,-0.0535,-0.0259,0.0126,0.024,0.0132,0.0212,-0.0008,-0.0024,-0.0039,-0.0114,0.0124,0.0124,0.0123,0.0123,0,0,-0.2034,-0.195,-0.1838,-0.1722,-0.1634,-0.1549,-0.1459,-0.1382,-0.1281,-0.1141,-0.1068,-0.0854,-0.069,-0.0179,-0.0038,0.0193,0.0181,0.0107,0.009,0.0073,0.0017,0.0015,0.0282,0.0283,0.0283,0.0284,0.0284,0,-0.2144,-0.2115,-0.2004,-0.1881,-0.1772,-0.1654,-0.1526,-0.1468,-0.1331,-0.1242,-0.1091,-0.0985,-0.0602,-0.0387,-0.0056,0.0016,-0.0079,0.0017,-0.0049,-0.0375,-0.0387,-0.0431,-0.0462,-0.0189,-0.0191,-0.0192,-0.0193,-0.0194,-0.2284,-0.2203,-0.2045,-0.197,-0.1893,-0.176,-0.166,-0.1543,-0.1443,-0.1252,-0.1173,-0.0942,-0.0808,-0.0466,-0.0283,-0.0076,-0.0194,-0.004,-0.0208,-0.0316,-0.0352,-0.0386,-0.0417,-0.0215,-0.0213,-0.021,-0.0209,0,-0.2351,-0.2273,-0.2113,-0.1954,-0.1909,-0.1809,-0.1648,-0.154,-0.1449,-0.1296,-0.1258,-0.1098,-0.0904,-0.0771,-0.061,-0.0561,-0.0418,-0.035,-0.0429,-0.0439,-0.0436,-0.046,-0.0117,-0.011,-0.0105,-0.01,-0.0096,0,-0.2398,-0.2285,-0.2161,-0.2081,-0.1933,-0.1836,-0.1683,-0.1595,-0.1463,-0.1346,-0.1285,-0.118,-0.1101,-0.0951,-0.0915,-0.0712,-0.0739,-0.0675,-0.0675,-0.0776,-0.0777,-0.096,-0.0982,-0.079,-0.0793,-0.0795,-0.0796,0,-0.2499,-0.2306,-0.2173,-0.2111,-0.1933,-0.1854,-0.1768,-0.1628,-0.1535,-0.1408,-0.1344,-0.1222,-0.1158,-0.1089,-0.1008,-0.1098,-0.0822,-0.0956,-0.0785,-0.0778,-0.0787,-0.0786,-0.0799,-0.0799,-0.08,-0.08,-0.0801,0,-0.2526,-0.2429,-0.2253,-0.2091,-0.2043,-0.1943,-0.1779,-0.1673,-0.1537,-0.1492,-0.1408,-0.1383,-0.1259,-0.1344,-0.1173,-0.1267,-0.122,-0.1192,-0.1184,-0.1058,-0.1156,-0.103,-0.0838,-0.113,-0.1134,-0.1137,-0.114,0,-0.2656,-0.248,-0.2412,-0.2232,-0.213,-0.2067,-0.1948,-0.184,-0.1766,-0.1652,-0.1608,-0.1511,-0.155,-0.153,-0.1471,-0.1426,-0.1336,-0.1465,-0.1325,-0.1317,-0.1245,-0.106,-0.1134,-0.0897,-0.1182,-0.1178,-0.1174,0,-0.2758,-0.2594,-0.2571,-0.2491,-0.2354,-0.2281,-0.2147,-0.2015,-0.1932,-0.1849,-0.1732,-0.1624,-0.1638,-0.1584,-0.1588,-0.1532,-0.1404,-0.1579,-0.1577,-0.149,-0.1244,-0.1134,-0.1094,-0.1478,-0.1474,-0.147,-0.1208,0,-0.279,-0.2703,-0.2652,-0.2518,-0.2446,-0.2354,-0.2269,-0.2194,-0.2149,-0.2087,-0.1959,-0.1905,-0.1802,-0.1792,-0.1779,-0.1654,-0.1656,-0.172,-0.1752,-0.1664,-0.1561,-0.1534,-0.1855,-0.1856,-0.1856,-0.1857,0,0,-0.292,-0.2806,-0.2773,-0.2679,-0.2611,-0.2579,-0.2474,-0.2406,-0.2282,-0.2227,-0.2247,-0.2064,-0.2018,-0.1884,-0.1849,-0.1841,-0.1802,-0.1837,-0.1715,-0.1699,-0.1685,-0.1582,-0.1556,-0.1858,-0.1858,-0.1858,-0.1858,0,-0.2923,-0.2887,-0.2809,-0.2744,-0.2652,-0.2599,-0.2575,-0.2476,-0.2424,-0.2302,-0.2277,-0.2204,-0.2082,-0.2016,-0.1973,-0.1863,-0.1852,-0.1862,-0.1779,-0.1723,-0.1707,-0.1693,-0.1589,-0.1565,-0.186,-0.186,-0.1859,0,-0.2981,-0.2924,-0.2887,-0.2788,-0.2728,-0.2634,-0.265,-0.2568,-0.248,-0.2472,-0.233,-0.2297,-0.2224,-0.2116,-0.2066,-0.2085,-0.1893,-0.1972,-0.1967,-0.1915,-0.1857,-0.1838,-0.1822,-0.2037,-0.2038,-0.2038,0,0,-0.2988,-0.2925,-0.2847,-0.2785,-0.2751,-0.2678,-0.2632,-0.2593,-0.2515,-0.2477,-0.241,-0.2335,-0.2258,-0.221,-0.2134,-0.2039,-0.1991,-0.1996,-0.1987,-0.198,-0.1926,-0.1866,-0.1848,-0.2042,-0.2042,-0.2042,0,0,-0.299,-0.2899,-0.2881,-0.281,-0.2738,-0.2652,-0.2603,-0.2576,-0.249,-0.2482,-0.2432,-0.241,-0.2302,-0.227,-0.2315,-0.215,-0.2181,-0.217,-0.2177,-0.2166,-0.2157,-0.2112,-0.2325,0,0,0,0,0,-0.2958,-0.2912,-0.2898,-0.2878,-0.2755,-0.2663,-0.2644,-0.2587,-0.2588,-0.2545,-0.2479,-0.2478,-0.2277,-0.2316,-0.2296,-0.2249,-0.2081,-0.2074,-0.2067,-0.2052,-0.2041,-0.2031,0,0,0,0,0,0,-0.2949,-0.2926,-0.2899,-0.2816,-0.2787,-0.2665,-0.2667,-0.2649,-0.259,-0.2585,-0.249,-0.2476,-0.244,-0.2325,-0.2307,-0.2264,-0.2331,-0.2078,-0.2072,-0.2067,-0.2048,-0.2039,-0.2031,0,0,0,0,0,-0.2943,-0.2924,-0.2746,-0.2815,-0.279,-0.2706,-0.2668,-0.2653,-0.2599,-0.2529,-0.2513,-0.2559,-0.2441,-0.2422,-0.2314,-0.2273,-0.2343,-0.2337,-0.2074,-0.2069,-0.2065,-0.2044,0,0,0,0,0,0,-0.2938,-0.2903,-0.2739,-0.2728,-0.2828,-0.271,-0.2691,-0.2657,-0.2545,-0.2529,-0.2598,-0.2596,-0.2441,-0.2426,-0.2411,-0.2277,-0.2353,-0.2347,-0.2342,-0.2071,-0.2067,-0.2064,0,0,0,0,0,0,-0.2913,-0.2895,-0.2733,-0.2753,-0.2745,-0.2714,-0.2697,-0.2625,-0.2545,-0.262,-0.2615,-0.2599,-0.2467,-0.2429,-0.2418,-0.2305,-0.2361,-0.2355,-0.235,-0.2347,-0.2068,-0.2065,0,0,0,0,0,0,-0.2904,-0.2888,-0.2755,-0.2749,-0.2741,-0.262,-0.2648,-0.2527,-0.256,-0.2626,-0.2562,-0.2563,-0.2471,-0.2458,-0.2422,-0.2315,-0.2308,-0.2361,-0.2357,-0.2353,-0.2351,0,0,0,0,0,0,0,-0.2897,-0.3018,-0.2802,-0.2745,-0.2739,-0.2634,-0.2631,-0.2628,-0.256,-0.2561,-0.2561,-0.2562,-0.2399,-0.2392,-0.2384,-0.2323,0,0,-0.2362,-0.2359,0,0,0,0,0,0,0,0,-0.3023,-0.3019,-0.2802,-0.28,-0.2798,-0.2634,-0.2631,-0.2629,-0.256,-0.2561,-0.2561,-0.2562,-0.2397,-0.2391,-0.2385,0,0,0,0,0,0,0,0,0,0,0,0,0,0,0,-0.2802,-0.28,0,-0.2634,-0.2632,-0.2629,-0.256,-0.2561,-0.2561,-0.2562,-0.2395,-0.239,-0.2386,0,0,0,0,0,0,0,0,0,0,0,0,0,0,0,0,0,0,0,0,0,0,0,0,0,0,0,0,0,0,0,0,0,0,0,0,0,0,0,0,0,0,0,0,0,0,0,0,0,0,0,0,0,0,0,0,0,0,0,0,0,0,0,0,0,0,0,0,0]}],[{"header":{"parameterUnit":"kt","parameterCategory":2,"dx":1,"dy":1,"la1":30.253999710083008,"la2":30.299108505249023,"lo1":-89.0895004272461,"lo2":-89.04439544677734,"nx":28,"ny":28,"refTime":"2022-10-05T21:00:00:Z","depth":"2","parameterNumber":3,"parameterNumberName":"V-component_of_CURRENTS"},"data":[0.0674,0.0635,0.0616,0.0599,0.0611,0.0634,0.0664,0.0616,0.053,0.0366,0.0224,0.005,0.0092,0.0148,0.0323,0.051,0.0565,0.0553,0.0387,0.0524,0.0524,0.0634,0.0715,0,0,0,0,0,0.0669,0.0647,0.0632,0.0613,0.0612,0.0638,0.0671,0.0661,0.0684,0.0581,0.0552,0.0339,0.0318,0.0306,0.0468,0.0494,0.0594,0.0518,0.0645,0.0646,0.0647,0.07,0.0635,0.0636,0.0636,0.0636,0,0,0.0662,0.0646,0.0622,0.0618,0.0623,0.0642,0.0656,0.0682,0.0711,0.0701,0.0717,0.0622,0.0545,0.0346,0.0404,0.0501,0.0487,0.0484,0.0491,0.0496,0.0535,0.0492,0.043,0.0429,0.0428,0.0428,0.0427,0,0.0659,0.0641,0.0632,0.0619,0.0616,0.0637,0.0645,0.0663,0.0705,0.0736,0.0771,0.0764,0.0715,0.065,0.0512,0.0501,0.0516,0.0487,0.0452,0.0715,0.0673,0.0692,0.0697,0.0644,0.0645,0.0645,0.0645,0.0645,0.0664,0.0648,0.0633,0.063,0.0619,0.0617,0.0631,0.0654,0.0681,0.0742,0.0765,0.0768,0.0762,0.0653,0.0623,0.0519,0.0553,0.0499,0.0591,0.0531,0.0547,0.0556,0.0565,0.0647,0.0647,0.0647,0.0647,0,0.0669,0.0657,0.0645,0.0638,0.0638,0.0632,0.065,0.0672,0.0693,0.0736,0.0745,0.0791,0.0767,0.0731,0.0715,0.0669,0.0622,0.0598,0.0636,0.0649,0.0577,0.0582,0.0486,0.0483,0.048,0.0478,0.0476,0,0.0683,0.0675,0.0663,0.0651,0.0651,0.0654,0.0663,0.0678,0.0708,0.0745,0.0765,0.0797,0.0804,0.0784,0.0761,0.0697,0.0737,0.0706,0.0711,0.0795,0.0795,0.0845,0.085,0.0812,0.0813,0.0814,0.0815,0,0.0704,0.0692,0.0676,0.0672,0.0677,0.0671,0.0674,0.0704,0.073,0.0753,0.0772,0.0789,0.0809,0.08,0.0791,0.0818,0.0762,0.0828,0.075,0.0743,0.0811,0.081,0.0816,0.0817,0.0817,0.0817,0.0818,0,0.0716,0.0709,0.069,0.0693,0.0694,0.0684,0.0705,0.0713,0.0746,0.0757,0.0778,0.0803,0.0828,0.0844,0.0842,0.0856,0.0851,0.086,0.0858,0.0806,0.0838,0.0814,0.0764,0.0811,0.0811,0.0812,0.0813,0,0.0736,0.0717,0.0715,0.0702,0.0698,0.0711,0.0715,0.0735,0.0747,0.0763,0.0801,0.0822,0.083,0.0852,0.0874,0.0901,0.0895,0.093,0.091,0.0908,0.0864,0.0808,0.089,0.0776,0.0822,0.0821,0.082,0,0.0752,0.0737,0.0733,0.0731,0.073,0.0742,0.0735,0.0761,0.0774,0.0767,0.0787,0.0817,0.0836,0.0862,0.0907,0.0934,0.0905,0.0939,0.0941,0.0886,0.0887,0.0825,0.0813,0.0961,0.0961,0.0961,0.0827,0,0.0765,0.0755,0.0747,0.0746,0.0754,0.075,0.0774,0.0771,0.0772,0.0797,0.0806,0.084,0.0875,0.0893,0.0916,0.0944,0.091,0.0965,0.1006,0.0984,0.0922,0.0916,0.0992,0.0992,0.0993,0.0993,0,0,0.0785,0.0778,0.079,0.0784,0.0792,0.0816,0.0816,0.0829,0.0849,0.0862,0.0844,0.0881,0.0915,0.0967,0.0955,0.0972,0.0949,0.0986,0.0988,0.0988,0.0987,0.0929,0.0923,0.0994,0.0994,0.0994,0.0994,0,0.0797,0.0797,0.0786,0.0797,0.0816,0.084,0.0833,0.0864,0.087,0.0866,0.0893,0.0909,0.0925,0.0972,0.0996,0.0975,0.0987,0.0973,0.0963,0.0992,0.099,0.0989,0.0931,0.0926,0.0995,0.0995,0.0995,0,0.0816,0.0827,0.0825,0.0846,0.0867,0.0875,0.0906,0.0913,0.0917,0.0954,0.0944,0.0958,0.0994,0.1005,0.1007,0.1032,0.1027,0.1045,0.1043,0.1027,0.1058,0.1056,0.1054,0.108,0.108,0.108,0,0,0.0826,0.0817,0.0856,0.0855,0.0862,0.0902,0.0915,0.0929,0.0948,0.095,0.0967,0.0985,0.1001,0.1018,0.1024,0.1047,0.1043,0.1056,0.1052,0.1048,0.1032,0.106,0.1058,0.1081,0.1081,0.1081,0,0,0.0838,0.0863,0.0875,0.0875,0.09,0.0951,0.095,0.0968,0.0975,0.0965,0.1004,0.1008,0.0998,0.1026,0.1034,0.1056,0.1071,0.107,0.1053,0.1048,0.1044,0.1021,0.1081,0,0,0,0,0,0.0872,0.0861,0.0871,0.0877,0.0921,0.0949,0.0957,0.0981,0.0984,0.0978,0.0987,0.1018,0.1034,0.1043,0.1051,0.1061,0.1095,0.1093,0.109,0.1071,0.1065,0.1061,0,0,0,0,0,0,0.0874,0.088,0.0872,0.0921,0.0932,0.0949,0.0972,0.0979,0.0985,0.0985,0.1015,0.102,0.1048,0.1042,0.1048,0.1058,0.1079,0.1094,0.1092,0.109,0.1069,0.1064,0.1061,0,0,0,0,0,0.0877,0.0881,0.0937,0.0922,0.0932,0.0968,0.0971,0.0977,0.0976,0.1022,0.1026,0.0989,0.1048,0.1054,0.1046,0.1054,0.1075,0.1077,0.1093,0.1091,0.109,0.1067,0,0,0,0,0,0,0.0878,0.0894,0.0941,0.0946,0.0912,0.0967,0.0973,0.0975,0.1012,0.1018,0.0999,0.0999,0.1049,0.1053,0.1058,0.105,0.1071,0.1074,0.1075,0.1092,0.109,0.1089,0,0,0,0,0,0,0.0892,0.0898,0.0943,0.0929,0.0933,0.0965,0.0971,0.0997,0.1012,0.0987,0.0989,0.0999,0.1034,0.1053,0.1056,0.1098,0.1069,0.1071,0.1072,0.1073,0.1091,0.1089,0,0,0,0,0,0,0.0895,0.09,0.0928,0.093,0.0934,0.0993,0.0989,0.1027,0.1016,0.0985,0.1014,0.1013,0.1033,0.1037,0.1055,0.1096,0.1098,0.1069,0.107,0.1071,0.1072,0,0,0,0,0,0,0,0.0898,0.085,0.091,0.0932,0.0935,0.0994,0.0995,0.0996,0.1016,0.1015,0.1014,0.1013,0.1056,0.1058,0.1061,0.1094,0,0,0.1068,0.107,0,0,0,0,0,0,0,0,0.0849,0.085,0.091,0.0911,0.0912,0.0994,0.0995,0.0996,0.1015,0.1015,0.1014,0.1013,0.1056,0.1058,0.106,0,0,0,0,0,0,0,0,0,0,0,0,0,0,0,0.091,0.0911,0,0.0994,0.0995,0.0996,0.1015,0.1015,0.1014,0.1014,0.1057,0.1059,0.106,0,0,0,0,0,0,0,0,0,0,0,0,0,0,0,0,0,0,0,0,0,0,0,0,0,0,0,0,0,0,0,0,0,0,0,0,0,0,0,0,0,0,0,0,0,0,0,0,0,0,0,0,0,0,0,0,0,0,0,0,0,0,0,0,0,0,0,0,0]}]],[[{"header":{"parameterUnit":"kt","parameterCategory":2,"dx":1,"dy":1,"la1":30.253999710083008,"la2":30.299108505249023,"lo1":-89.0895004272461,"lo2":-89.04439544677734,"nx":28,"ny":28,"refTime":"2022-10-05T21:00:00:Z","depth":"4","parameterNumber":2,"parameterNumberName":"U-component_of_CURRENTS"},"data":[-0.0931,-0.0917,-0.0888,-0.0768,-0.0704,-0.0669,-0.0697,-0.0757,-0.0734,-0.0818,-0.0773,-0.0824,-0.0746,-0.0839,-0.0672,-0.0664,-0.0797,-0.0648,-0.0645,-0.0942,-0.0968,-0.099,-0.0962,0,0,0,0,0,-0.0961,-0.0931,-0.0912,-0.0868,-0.0846,-0.0839,-0.0892,-0.0941,-0.1016,-0.0941,-0.0984,-0.0913,-0.0818,-0.0821,-0.0707,-0.0789,-0.0858,-0.0653,-0.0905,-0.0958,-0.0986,-0.095,0,0,0,0,0,0,-0.0997,-0.0981,-0.0993,-0.098,-0.0976,-0.094,-0.0983,-0.0974,-0.0993,-0.106,-0.1032,-0.1025,-0.1063,-0.0951,-0.0949,-0.0896,-0.0866,-0.0893,-0.0923,-0.095,-0.0906,-0.0809,-0.0576,0,0,0,0,0,-0.1023,-0.1049,-0.1059,-0.1055,-0.107,-0.1074,-0.1102,-0.1099,-0.1165,-0.1232,-0.1181,-0.1148,-0.1076,-0.1067,-0.1038,-0.1048,-0.1266,-0.1178,-0.1193,-0.1221,-0.1168,-0.1164,-0.1181,-0.1092,-0.1096,-0.1098,-0.1099,0,-0.1061,-0.1075,-0.1119,-0.112,-0.1143,-0.1182,-0.1198,-0.1268,-0.1274,-0.1325,-0.1312,-0.1302,-0.1322,-0.1215,-0.1283,-0.1256,-0.1257,-0.1251,-0.1281,-0.1214,-0.1201,-0.1211,-0.122,-0.1122,-0.112,-0.1118,-0.1116,0,-0.108,-0.1116,-0.1136,-0.1188,-0.1208,-0.1227,-0.1286,-0.1298,-0.1362,-0.1381,-0.1401,-0.1461,-0.1434,-0.1501,-0.1539,-0.1511,-0.1485,-0.1429,-0.1646,-0.1639,-0.126,-0.126,-0.1159,-0.115,-0.1143,-0.1138,-0.1133,0,-0.1115,-0.1135,-0.1184,-0.1198,-0.1218,-0.1278,-0.1314,-0.1354,-0.1409,-0.1421,-0.1509,-0.1517,-0.1621,-0.1644,-0.1672,-0.1578,-0.1701,-0.1501,-0.1475,-0.1723,-0.1721,-0.1715,-0.1712,-0.1746,-0.1747,-0.1748,-0.1748,0,-0.1135,-0.1178,-0.1197,-0.1214,-0.1272,-0.1299,-0.1335,-0.14,-0.1423,-0.1496,-0.1516,-0.1589,-0.1613,-0.166,-0.1681,-0.1696,-0.171,-0.1728,-0.1524,-0.1508,-0.1717,-0.1713,-0.1749,-0.1749,-0.1749,-0.1749,-0.1749,0,-0.1165,-0.1185,-0.1213,-0.1259,-0.1268,-0.1304,-0.1359,-0.14,-0.1466,-0.1498,-0.1559,-0.1594,-0.1641,-0.1662,-0.1702,-0.1708,-0.1705,-0.1712,-0.171,-0.1501,-0.147,-0.1614,-0.1657,-0.1656,-0.1656,-0.1656,-0.1656,0,-0.1164,-0.1197,-0.1227,-0.1268,-0.1279,-0.1321,-0.1363,-0.1408,-0.1453,-0.1504,-0.1549,-0.1594,-0.1618,-0.1638,-0.1675,-0.1682,-0.1693,-0.1696,-0.1685,-0.1683,-0.1475,-0.1465,-0.1725,-0.1654,-0.1654,-0.1654,-0.1655,0,-0.1164,-0.1209,-0.1219,-0.1233,-0.1283,-0.1303,-0.1353,-0.1389,-0.1414,-0.1489,-0.1528,-0.1587,-0.1607,-0.1623,-0.1637,-0.1666,-0.1682,-0.1667,-0.1668,-0.1619,-0.1705,-0.1488,-0.1468,-0.1719,-0.172,-0.1721,-0.1653,0,-0.1163,-0.1195,-0.121,-0.1246,-0.1277,-0.1293,-0.1324,-0.1366,-0.1404,-0.1431,-0.1493,-0.1522,-0.1566,-0.1593,-0.1586,-0.1636,-0.1615,-0.1632,-0.1611,-0.1652,-0.1613,-0.1615,-0.1593,-0.1592,-0.1592,-0.1592,0,0,-0.1145,-0.1167,-0.1195,-0.1219,-0.1236,-0.1261,-0.1277,-0.1309,-0.1357,-0.1373,-0.1393,-0.1478,-0.1495,-0.1532,-0.155,-0.1564,-0.1561,-0.1572,-0.1635,-0.1639,-0.1644,-0.161,-0.1611,-0.1591,-0.1591,-0.159,-0.159,0,-0.1127,-0.1159,-0.1181,-0.1203,-0.1233,-0.1247,-0.126,-0.1294,-0.1319,-0.1367,-0.1374,-0.1411,-0.1474,-0.1486,-0.1499,-0.1552,-0.155,-0.1583,-0.1603,-0.163,-0.1636,-0.164,-0.1608,-0.161,-0.1589,-0.1589,-0.1589,0,-0.1101,-0.1124,-0.114,-0.1178,-0.1198,-0.1219,-0.1224,-0.1255,-0.1282,-0.1285,-0.1347,-0.1367,-0.1388,-0.1434,-0.146,-0.1451,-0.1526,-0.152,-0.1523,-0.1517,-0.1544,-0.155,-0.1556,-0.1477,-0.1477,-0.1476,0,0,-0.1089,-0.1119,-0.1137,-0.1173,-0.1182,-0.1209,-0.1232,-0.1244,-0.1267,-0.1284,-0.1318,-0.1348,-0.1374,-0.1396,-0.1421,-0.1465,-0.1455,-0.1505,-0.1511,-0.1515,-0.1512,-0.1539,-0.1546,-0.1474,-0.1474,-0.1474,0,0,-0.1078,-0.1103,-0.1114,-0.1152,-0.1176,-0.1198,-0.1226,-0.1244,-0.1277,-0.128,-0.1298,-0.1305,-0.1353,-0.1366,-0.1339,-0.1432,-0.1412,-0.1418,-0.1421,-0.1428,-0.1433,-0.1421,-0.1342,0,0,0,0,0,-0.1067,-0.1096,-0.1105,-0.1114,-0.1162,-0.119,-0.1199,-0.1228,-0.124,-0.1264,-0.128,-0.129,-0.1356,-0.1332,-0.134,-0.1384,-0.1452,-0.1456,-0.146,-0.1475,-0.1482,-0.1488,0,0,0,0,0,0,-0.107,-0.1079,-0.1104,-0.1124,-0.1136,-0.1189,-0.1189,-0.1198,-0.1239,-0.1243,-0.1284,-0.129,-0.1294,-0.1329,-0.1336,-0.1378,-0.1339,-0.1453,-0.1457,-0.146,-0.1478,-0.1483,-0.1488,0,0,0,0,0,-0.1073,-0.108,-0.115,-0.1124,-0.1135,-0.1176,-0.1189,-0.1197,-0.1236,-0.1253,-0.126,-0.126,-0.1293,-0.1301,-0.1333,-0.1375,-0.1335,-0.1337,-0.1456,-0.1458,-0.1461,-0.148,0,0,0,0,0,0,-0.1075,-0.1089,-0.1153,-0.1158,-0.1124,-0.1175,-0.1183,-0.1195,-0.1245,-0.1252,-0.1226,-0.1228,-0.1293,-0.1299,-0.1305,-0.1374,-0.1331,-0.1334,-0.1335,-0.1458,-0.146,-0.1462,0,0,0,0,0,0,-0.1085,-0.1092,-0.1156,-0.1153,-0.1157,-0.1174,-0.1181,-0.1206,-0.1245,-0.1215,-0.1218,-0.1226,-0.1283,-0.1297,-0.1302,-0.134,-0.1328,-0.1331,-0.1332,-0.1333,-0.1459,-0.1461,0,0,0,0,0,0,-0.1089,-0.1095,-0.1152,-0.1155,-0.1159,-0.1212,-0.1196,-0.1245,-0.1243,-0.1212,-0.1244,-0.1244,-0.1281,-0.1286,-0.13,-0.1336,-0.1339,-0.1328,-0.133,-0.1331,-0.1332,0,0,0,0,0,0,0,-0.1092,-0.1042,-0.1126,-0.1158,-0.1161,-0.1199,-0.12,-0.1202,-0.1243,-0.1243,-0.1244,-0.1244,-0.1315,-0.1317,-0.132,-0.1332,0,0,-0.1328,-0.1329,0,0,0,0,0,0,0,0,-0.104,-0.1041,-0.1126,-0.1127,-0.1128,-0.1199,-0.12,-0.1201,-0.1243,-0.1243,-0.1244,-0.1244,-0.1315,-0.1317,-0.132,0,0,0,0,0,0,0,0,0,0,0,0,0,0,0,-0.1127,-0.1127,0,-0.12,-0.12,-0.1201,-0.1243,-0.1243,-0.1244,-0.1244,-0.1316,-0.1318,-0.1319,0,0,0,0,0,0,0,0,0,0,0,0,0,0,0,0,0,0,0,0,0,0,0,0,0,0,0,0,0,0,0,0,0,0,0,0,0,0,0,0,0,0,0,0,0,0,0,0,0,0,0,0,0,0,0,0,0,0,0,0,0,0,0,0,0,0,0,0,0]}],[{"header":{"parameterUnit":"kt","parameterCategory":2,"dx":1,"dy":1,"la1":30.253999710083008,"la2":30.299108505249023,"lo1":-89.0895004272461,"lo2":-89.04439544677734,"nx":28,"ny":28,"refTime":"2022-10-05T21:00:00:Z","depth":"4","parameterNumber":3,"parameterNumberName":"V-component_of_CURRENTS"},"data":[-0.0845,-0.0894,-0.0913,-0.1003,-0.1063,-0.1175,-0.123,-0.1258,-0.121,-0.1213,-0.1098,-0.1059,-0.0854,-0.0998,-0.0658,-0.0618,-0.0499,-0.0383,-0.0379,-0.0212,-0.0213,-0.0214,-0.0316,0,0,0,0,0,-0.0844,-0.0867,-0.0933,-0.1019,-0.1117,-0.1172,-0.1254,-0.1285,-0.131,-0.1258,-0.1245,-0.1124,-0.0912,-0.0844,-0.0669,-0.068,-0.0436,-0.0471,-0.033,-0.0212,-0.0213,-0.0313,0,0,0,0,0,0,-0.0846,-0.0878,-0.0933,-0.1004,-0.1104,-0.1182,-0.1232,-0.1245,-0.1274,-0.1273,-0.1252,-0.1151,-0.1103,-0.0878,-0.0701,-0.0537,-0.0454,-0.0364,-0.0357,-0.0356,-0.0456,-0.0524,-0.0446,0,0,0,0,0,-0.0833,-0.0869,-0.0915,-0.0998,-0.1075,-0.1162,-0.1233,-0.125,-0.1293,-0.1322,-0.1269,-0.1169,-0.1054,-0.0872,-0.0699,-0.0484,-0.0394,-0.0317,-0.0314,-0.0288,-0.0323,-0.0306,-0.0316,-0.0218,-0.0218,-0.0218,-0.0218,0,-0.0817,-0.0846,-0.0933,-0.0978,-0.1017,-0.11,-0.1161,-0.1215,-0.1243,-0.1275,-0.1274,-0.122,-0.1169,-0.0892,-0.0745,-0.0467,-0.0414,-0.0321,-0.0295,-0.0327,-0.0306,-0.0317,-0.0327,-0.0219,-0.0219,-0.0219,-0.0219,0,-0.0808,-0.0831,-0.0892,-0.0957,-0.0989,-0.1046,-0.1136,-0.1185,-0.1212,-0.1246,-0.125,-0.1219,-0.1102,-0.0963,-0.0746,-0.0624,-0.0443,-0.0369,-0.0456,-0.0433,-0.0323,-0.0333,-0.022,-0.022,-0.022,-0.0219,-0.0219,0,-0.0786,-0.083,-0.0868,-0.0896,-0.0974,-0.0998,-0.1084,-0.1112,-0.1143,-0.1175,-0.115,-0.1146,-0.1014,-0.092,-0.0756,-0.0582,-0.057,-0.0423,-0.0391,-0.0449,-0.0457,-0.042,-0.0427,-0.0376,-0.0377,-0.0378,-0.0379,0,-0.0759,-0.0803,-0.0849,-0.0864,-0.0917,-0.096,-0.0998,-0.1037,-0.107,-0.1084,-0.1099,-0.1042,-0.1024,-0.0875,-0.0743,-0.0731,-0.0565,-0.0528,-0.0426,-0.0426,-0.0429,-0.0434,-0.0381,-0.0381,-0.0381,-0.0382,-0.0382,0,-0.0734,-0.0752,-0.08,-0.0858,-0.0874,-0.0907,-0.0974,-0.1,-0.1017,-0.1022,-0.1011,-0.0992,-0.0945,-0.0892,-0.0747,-0.079,-0.0672,-0.0596,-0.0588,-0.0591,-0.057,-0.0524,-0.0492,-0.0494,-0.0496,-0.0497,-0.0498,0,-0.0715,-0.0742,-0.0745,-0.0796,-0.082,-0.0833,-0.0868,-0.0889,-0.0903,-0.0924,-0.0892,-0.0911,-0.0868,-0.0875,-0.0812,-0.0749,-0.0672,-0.0738,-0.057,-0.0565,-0.0593,-0.0567,-0.0666,-0.0519,-0.0516,-0.0515,-0.0513,0,-0.069,-0.0702,-0.0709,-0.0737,-0.075,-0.0763,-0.0791,-0.082,-0.0853,-0.0838,-0.0868,-0.0857,-0.0843,-0.0841,-0.0822,-0.0767,-0.0699,-0.0728,-0.0724,-0.0675,-0.0564,-0.0588,-0.0577,-0.0674,-0.0672,-0.0671,-0.0528,0,-0.0672,-0.0691,-0.0694,-0.0713,-0.0722,-0.0735,-0.0741,-0.0757,-0.0769,-0.0775,-0.0794,-0.0777,-0.0786,-0.0778,-0.0771,-0.0751,-0.0724,-0.0713,-0.0695,-0.0691,-0.0627,-0.0616,-0.0737,-0.0736,-0.0735,-0.0735,0,0,-0.0666,-0.0675,-0.0665,-0.0673,-0.0685,-0.0679,-0.0702,-0.0707,-0.0716,-0.0732,-0.0725,-0.0738,-0.0734,-0.075,-0.0754,-0.0745,-0.0701,-0.0748,-0.0698,-0.0695,-0.0691,-0.0631,-0.0621,-0.0734,-0.0734,-0.0733,-0.0733,0,-0.0653,-0.0657,-0.0665,-0.0666,-0.0666,-0.067,-0.0674,-0.0678,-0.0694,-0.0708,-0.0715,-0.0718,-0.0725,-0.0728,-0.073,-0.0737,-0.07,-0.0736,-0.0751,-0.0695,-0.0692,-0.0689,-0.063,-0.0622,-0.0732,-0.0732,-0.0732,0,-0.0648,-0.0643,-0.0647,-0.0646,-0.065,-0.0661,-0.0656,-0.066,-0.0679,-0.0672,-0.0704,-0.0703,-0.0701,-0.0713,-0.0717,-0.0707,-0.0683,-0.0713,-0.0715,-0.0717,-0.0658,-0.0655,-0.0653,-0.0686,-0.0686,-0.0686,0,0,-0.0644,-0.0646,-0.0641,-0.0643,-0.0645,-0.0649,-0.065,-0.0659,-0.0665,-0.0677,-0.0686,-0.0691,-0.0699,-0.0702,-0.0706,-0.0705,-0.0667,-0.0709,-0.0711,-0.0713,-0.0717,-0.0659,-0.0657,-0.0686,-0.0686,-0.0686,0,0,-0.064,-0.0634,-0.0643,-0.0644,-0.0644,-0.064,-0.0646,-0.0653,-0.0672,-0.0682,-0.0687,-0.0691,-0.0708,-0.0695,-0.0699,-0.0706,-0.0694,-0.0693,-0.0725,-0.0727,-0.0729,-0.0737,-0.0703,0,0,0,0,0,-0.0629,-0.063,-0.0638,-0.0637,-0.0639,-0.0632,-0.0634,-0.0649,-0.0661,-0.0673,-0.0686,-0.0689,-0.07,-0.0703,-0.0703,-0.0716,-0.069,-0.0689,-0.0689,-0.0729,-0.0732,-0.0734,0,0,0,0,0,0,-0.0629,-0.0628,-0.0637,-0.063,-0.063,-0.0633,-0.0646,-0.065,-0.0661,-0.0667,-0.0686,-0.0688,-0.0693,-0.0703,-0.0703,-0.0716,-0.0703,-0.069,-0.0689,-0.0689,-0.073,-0.0732,-0.0734,0,0,0,0,0,-0.0628,-0.0627,-0.0631,-0.063,-0.063,-0.0642,-0.0647,-0.0651,-0.0673,-0.0669,-0.0674,-0.0685,-0.0692,-0.0693,-0.0703,-0.0716,-0.0704,-0.0703,-0.0689,-0.0689,-0.0688,-0.0731,0,0,0,0,0,0,-0.0627,-0.0639,-0.0632,-0.0631,-0.0639,-0.0644,-0.0647,-0.0652,-0.0676,-0.0679,-0.0666,-0.067,-0.0691,-0.0692,-0.0693,-0.0717,-0.0704,-0.0704,-0.0704,-0.0689,-0.0689,-0.0688,0,0,0,0,0,0,-0.0639,-0.0639,-0.0632,-0.0643,-0.0644,-0.0645,-0.0648,-0.0642,-0.0676,-0.0674,-0.0676,-0.0667,-0.0686,-0.0691,-0.0692,-0.0682,-0.0704,-0.0704,-0.0704,-0.0704,-0.0689,-0.0688,0,0,0,0,0,0,-0.0639,-0.064,-0.0643,-0.0644,-0.0646,-0.065,-0.064,-0.0645,-0.0679,-0.0673,-0.0682,-0.0684,-0.0684,-0.0686,-0.0691,-0.068,-0.0681,-0.0704,-0.0704,-0.0704,-0.0704,0,0,0,0,0,0,0,-0.0639,-0.0636,-0.0625,-0.0646,-0.0647,-0.0628,-0.0629,-0.0629,-0.068,-0.0681,-0.0682,-0.0683,-0.0705,-0.0705,-0.0705,-0.0679,0,0,-0.0704,-0.0704,0,0,0,0,0,0,0,0,-0.0636,-0.0636,-0.0625,-0.0625,-0.0624,-0.0628,-0.0629,-0.0629,-0.068,-0.0681,-0.0682,-0.0683,-0.0705,-0.0705,-0.0705,0,0,0,0,0,0,0,0,0,0,0,0,0,0,0,-0.0625,-0.0625,0,-0.0628,-0.0629,-0.0629,-0.068,-0.0681,-0.0682,-0.0682,-0.0705,-0.0705,-0.0705,0,0,0,0,0,0,0,0,0,0,0,0,0,0,0,0,0,0,0,0,0,0,0,0,0,0,0,0,0,0,0,0,0,0,0,0,0,0,0,0,0,0,0,0,0,0,0,0,0,0,0,0,0,0,0,0,0,0,0,0,0,0,0,0,0,0,0,0,0]}]]]